OK1FPA-15 Weather Reports


time (UTC)temp
C
wind
direction
speed
KPH
gust
KPH
rain 1hr
cm
rain 24hr
cm
rain mn
cm
humidity
%
barometer
mb
20260902053542 12 0.0 0.0 0.00 0.00 0.00 10 1022.4
20260902052542 12 0.0 0.0 0.00 0.00 0.00 10 1022.2
20260902051542 12 0.0 0.0 0.00 0.00 0.00 10 1022.2
20260902050542 12 0.0 0.0 0.00 0.00 0.00 10 1022.1
20260902045542 12 0.0 0.0 0.00 0.00 0.00 10 1022.1
20260902044542 12 0.0 0.0 0.00 0.00 0.00 10 1022.0
20260902043542 12 0.0 0.0 0.00 0.00 0.00 10 1022.0
20260902042542 12 0.0 0.0 0.00 0.00 0.00 10 1021.9
20260902041545 12 0.0 0.0 0.00 0.00 0.00 10 1021.8
20260902040542 12 0.0 0.0 0.00 0.00 0.00 99 1021.7
20260902035542 12 0.0 0.0 0.00 0.00 0.00 98 1021.6
20260902034542 12 0.0 0.0 0.00 0.00 0.00 98 1021.6
20260902033542 12 0.0 0.0 0.00 0.00 0.00 97 1021.5
20260902032542 12 0.0 0.0 0.00 0.00 0.00 96 1021.6
20260902031542 13 0.0 0.0 0.00 0.00 0.00 95 1021.6
20260902030542 13 0.0 0.0 0.00 0.00 0.00 94 1021.6
20260902025542 13 0.0 0.0 0.00 0.00 0.00 94 1021.7
20260902024542 13 0.0 0.0 0.00 0.00 0.00 94 1021.8
20260902023542 13 0.0 0.0 0.00 0.00 0.00 94 1021.8
20260902022542 13 0.0 0.0 0.00 0.00 0.00 92 1021.8
20260902021542 13 0.0 0.0 0.00 0.00 0.00 92 1021.8
20260902020542 13 0.0 0.0 0.00 0.00 0.00 92 1021.7
20260902015542 13 0.0 0.0 0.00 0.00 0.00 91 1021.7
20260902014542 14 0.0 0.0 0.00 0.00 0.00 90 1021.6
20260902013542 14 0.0 0.0 0.00 0.00 0.00 89 1021.7
20260902012542 14 0.0 0.0 0.00 0.00 0.00 89 1021.7
20260902011542 14 0.0 0.0 0.00 0.00 0.00 89 1021.6
20260902010542 14 0.0 0.0 0.00 0.00 0.00 89 1021.6
20260902005542 14 0.0 0.0 0.00 0.00 0.00 90 1021.6
20260902004542 14 0.0 0.0 0.00 0.00 0.00 89 1021.6
20260902003542 15 0.0 0.0 0.00 0.00 0.00 88 1021.7
20260902002542 15 0.0 0.0 0.00 0.00 0.00 88 1021.6
20260902001542 15 0.0 0.0 0.00 0.00 0.00 88 1021.7
20260902000542 15 0.0 0.0 0.00 0.00 0.00 88 1021.7
20260901235542 15 0.0 0.0 0.00 0.00 0.00 88 1021.7
20260901234542 15 0.0 0.0 0.00 0.00 0.00 88 1021.7
20260901233542 15 0.0 0.0 0.00 0.00 0.00 89 1021.7
20260901232542 15 0.0 0.0 0.00 0.00 0.00 87 1021.6
20260901231542 15 0.0 0.0 0.00 0.00 0.00 88 1021.6
20260901230542 15 0.0 0.0 0.00 0.00 0.00 88 1021.6
20260901225542 15 0.0 0.0 0.00 0.00 0.00 87 1021.5
20260901224542 15 0.0 0.0 0.00 0.00 0.00 87 1021.3
20260901223542 15 0.0 0.0 0.00 0.00 0.00 87 1021.3
20260901222542 15 0.0 0.0 0.00 0.00 0.00 87 1021.3
20260901221546 15 0.0 0.0 0.00 0.00 0.00 86 1021.2
20260901220541 15 0.0 0.0 0.00 0.00 0.00 85 1021.3
20260901215541 15 0.0 0.0 0.00 0.00 0.00 85 1021.2
20260901214541 15 0.0 0.0 0.00 0.00 0.00 84 1021.1
20260901213540 15 0.0 0.0 0.00 0.00 0.00 84 1021.1
20260901212541 15 0.0 0.0 0.00 0.00 0.00 83 1021.1
20260901211541 15 0.0 0.0 0.00 0.00 0.00 82 1021.2
20260901210541 15 0.0 0.0 0.00 0.00 0.00 82 1021.2
20260901205541 15 0.0 0.0 0.00 0.00 0.00 81 1021.3
20260901204541 15 0.0 0.0 0.00 0.00 0.00 81 1021.3
20260901203541 15 0.0 0.0 0.00 0.00 0.00 80 1021.3
20260901202541 15 0.0 0.0 0.00 0.00 0.00 80 1021.2
20260901201541 15 0.0 0.0 0.00 0.00 0.00 79 1021.2
20260901200541 15 0.0 0.0 0.00 0.00 0.00 79 1021.2
20260901195541 15 0.0 0.0 0.00 0.00 0.00 79 1021.1
20260901194541 15 0.0 0.0 0.00 0.00 0.00 80 1021.0
20260901193541 15 0.0 0.0 0.00 0.00 0.00 79 1021.0
20260901192541 15 0.0 0.0 0.00 0.00 0.00 78 1020.9
20260901191541 15 0.0 0.0 0.00 0.00 0.00 77 1020.8
20260901190541 16 0.0 0.0 0.00 0.00 0.00 76 1020.8
20260901185541 16 0.0 0.0 0.00 0.00 0.00 76 1020.8
20260901184541 16 0.0 0.0 0.00 0.00 0.00 75 1020.7
20260901183541 16 0.0 0.0 0.00 0.00 0.00 74 1020.6
20260901182541 16 0.0 0.0 0.00 0.00 0.00 73 1020.5
20260901181541 17 0.0 0.0 0.00 0.00 0.00 71 1020.3
20260901180541 17 0.0 0.0 0.00 0.00 0.00 70 1020.2
20260901175541 17 0.0 0.0 0.00 0.00 0.00 67 1020.0
20260901174541 18 0.0 0.0 0.00 0.00 0.00 66 1020.0
20260901173541 18 0.0 0.0 0.00 0.00 0.00 65 1019.9
20260901172541 18 0.0 0.0 0.00 0.00 0.00 63 1019.8
20260901171541 19 0.0 0.0 0.00 0.00 0.00 61 1019.9
20260901170541 20 0.0 0.0 0.00 0.00 0.00 59 1019.9
20260901165541 20 0.0 0.0 0.00 0.00 0.00 57 1019.9
20260901164541 21 0.0 0.0 0.00 0.00 0.00 54 1019.8
20260901163541 21 0.0 0.0 0.00 0.00 0.00 50 1019.8
20260901162541 21 0.0 0.0 0.00 0.00 0.00 48 1019.9
20260901161541 21 0.0 0.0 0.00 0.00 0.00 51 1019.8
20260901160541 22 0.0 0.0 0.00 0.00 0.00 50 1019.7
20260901155541 22 0.0 0.0 0.00 0.00 0.00 53 1019.6
20260901154541 22 0.0 0.0 0.00 0.00 0.00 53 1019.6
20260901153541 22 0.0 0.0 0.00 0.00 0.00 52 1019.7
20260901152541 22 0.0 0.0 0.00 0.00 0.00 51 1019.7
20260901151541 23 0.0 0.0 0.00 0.00 0.00 45 1019.8
20260901150542 23 0.0 0.0 0.00 0.00 0.00 44 1019.8
20260901145541 23 0.0 0.0 0.00 0.00 0.00 45 1019.8
20260901144541 23 0.0 0.0 0.00 0.00 0.00 45 1019.9
20260901143541 23 0.0 0.0 0.00 0.00 0.00 44 1019.7
20260901142541 23 0.0 0.0 0.00 0.00 0.00 43 1019.9
20260901141541 23 0.0 0.0 0.00 0.00 0.00 44 1019.9
20260901140541 23 0.0 0.0 0.00 0.00 0.00 45 1020.0
20260901135541 23 0.0 0.0 0.00 0.00 0.00 44 1020.0
20260901134541 23 0.0 0.0 0.00 0.00 0.00 44 1020.1
20260901133541 23 0.0 0.0 0.00 0.00 0.00 43 1020.2
20260901132541 23 0.0 0.0 0.00 0.00 0.00 42 1020.3
20260901131541 23 0.0 0.0 0.00 0.00 0.00 45 1020.4
20260901130541 23 0.0 0.0 0.00 0.00 0.00 45 1020.4
20260901125541 23 0.0 0.0 0.00 0.00 0.00 45 1020.5
20260901124541 22 0.0 0.0 0.00 0.00 0.00 43 1020.5
20260901123541 23 0.0 0.0 0.00 0.00 0.00 45 1020.5
20260901122540 23 0.0 0.0 0.00 0.00 0.00 47 1020.7
20260901121541 22 0.0 0.0 0.00 0.00 0.00 47 1020.7
20260901120541 22 0.0 0.0 0.00 0.00 0.00 52 1020.8
20260901115541 22 0.0 0.0 0.00 0.00 0.00 47 1020.8
20260901114541 22 0.0 0.0 0.00 0.00 0.00 49 1020.8
20260901113541 21 0.0 0.0 0.00 0.00 0.00 52 1020.8
20260901112541 22 0.0 0.0 0.00 0.00 0.00 47 1020.9
20260901111541 22 0.0 0.0 0.00 0.00 0.00 49 1020.8
20260901110541 22 0.0 0.0 0.00 0.00 0.00 49 1020.8
20260901105541 22 0.0 0.0 0.00 0.00 0.00 51 1020.8
20260901104541 21 0.0 0.0 0.00 0.00 0.00 53 1020.8
20260901103541 21 0.0 0.0 0.00 0.00 0.00 54 1020.9
20260901102541 21 0.0 0.0 0.00 0.00 0.00 54 1020.9
20260901101544 21 0.0 0.0 0.00 0.00 0.00 55 1020.8
20260901100539 21 0.0 0.0 0.00 0.00 0.00 55 1020.8
20260901095539 21 0.0 0.0 0.00 0.00 0.00 54 1020.9
20260901094540 21 0.0 0.0 0.00 0.00 0.00 56 1020.8
20260901093544 20 0.0 0.0 0.00 0.00 0.00 53 1020.8
20260901092540 20 0.0 0.0 0.00 0.00 0.00 55 1020.8
20260901091539 20 0.0 0.0 0.00 0.00 0.00 58 1020.8
20260901090539 20 0.0 0.0 0.00 0.00 0.00 58 1020.6
20260901085539 20 0.0 0.0 0.00 0.00 0.00 58 1020.6
20260901084539 20 0.0 0.0 0.00 0.00 0.00 61 1020.5
20260901083539 20 0.0 0.0 0.00 0.00 0.00 58 1020.5
20260901082539 20 0.0 0.0 0.00 0.00 0.00 60 1020.3
20260901081539 19 0.0 0.0 0.00 0.00 0.00 64 1020.3
20260901080540 18 0.0 0.0 0.00 0.00 0.00 61 1020.3
20260901075539 18 0.0 0.0 0.00 0.00 0.00 65 1020.3
20260901074539 18 0.0 0.0 0.00 0.00 0.00 67 1020.2
20260901073539 18 0.0 0.0 0.00 0.00 0.00 65 1020.0
20260901072539 17 0.0 0.0 0.00 0.00 0.00 69 1020.0
20260901071540 17 0.0 0.0 0.00 0.00 0.00 68 1020.0
20260901070540 17 0.0 0.0 0.00 0.00 0.00 71 1020.0
20260901065539 17 0.0 0.0 0.00 0.00 0.00 71 1020.0
20260901064540 17 0.0 0.0 0.00 0.00 0.00 71 1019.9
20260901063539 17 0.0 0.0 0.00 0.00 0.00 73 1019.9
20260901062539 16 0.0 0.0 0.00 0.00 0.00 75 1019.8
20260901061539 16 0.0 0.0 0.00 0.00 0.00 79 1019.8
20260901060539 15 0.0 0.0 0.00 0.00 0.00 82 1019.9
20260901055539 15 0.0 0.0 0.00 0.00 0.00 91 1019.6
20260901054539 14 0.0 0.0 0.00 0.00 0.00 93 1019.7